Location: Maccacari
(45.1333°N, 11.1333°E)
Time: 11:39:44
(UTC+00:00)

SR - Pass Details

Date: 21 June 2021
Orbit: 577 x 878 km, 66.7° (Epoch: 24 July)

Event Time Altitude Azimuth Distance (km) Brightness Sun altitude
Rises 22:37:29 0° 332° (NNW) 3,337 ? -20.8°
Reaches altitude 10° 22:40:24 10° 345° (NNW) 2,352 ? -20.9°
Maximum altitude 22:44:52 26° 41° (NE) 1,442 ? -21.0°
Drops below altitude 10° 22:49:02 10° 98° (E) 2,173 ? -21.1°
Enters shadow 22:49:22 - 100° (E) 2,278 ? -21.1°
